EW3235 Weather Reports


Display with metric or nautical units.
time (UTC)temp
F
wind
direction
speed
MPH
gust
MPH
rain 1hr
in
rain 24hr
in
rain mn
in
humidity
%
barometer
mb
20181020034823 55 98 0.0 0.0 0.00 0.00 0.00 75 1016.8
20181020034324 55 98 0.0 0.0 0.00 0.00 0.00 74 1016.8
20181020033825 56 98 0.0 0.0 0.00 0.00 0.00 73 1016.9
20181020033354 57 98 0.0 0.0 0.00 0.00 0.00 72 1016.9
20181020032913 57 98 0.0 1.0 0.00 0.00 0.00 72 1016.9
20181020032412 57 98 0.0 1.0 0.00 0.00 0.00 71 1016.8
20181020031914 58 100 0.0 0.0 0.00 0.00 0.00 69 1016.8
20181020031419 58 100 0.0 0.0 0.00 0.00 0.00 68 1016.8
20181020030826 59 100 0.0 0.0 0.00 0.00 0.00 69 1016.7
20181020030356 59 100 0.0 0.0 0.00 0.00 0.00 68 1016.7
20181020025852 60 100 0.0 0.0 0.00 0.00 0.00 68 1016.6
20181020025353 60 100 0.0 0.0 0.00 0.00 0.00 67 1016.6
20181020024855 61 100 0.0 0.0 0.00 0.00 0.00 66 1016.6
20181020024357 61 125 0.0 0.0 0.00 0.00 0.00 64 1016.6
20181020023907 61 125 0.0 0.0 0.00 0.00 0.00 63 1016.5
20181020023406 62 125 0.0 0.0 0.00 0.00 0.00 62 1016.6
20181020022421 64 125 0.0 0.0 0.00 0.00 0.00 61 1016.5
20181020021832 64 126 0.0 0.0 0.00 0.00 0.00 58 1016.5
20181020021354 64 99 0.0 1.0 0.00 0.00 0.00 57 1016.4
20181020020833 65 20 0.0 0.0 0.00 0.00 0.00 57 1016.4
20181020020344 66 20 0.0 0.0 0.00 0.00 0.00 55 1016.3
20181020015852 67 20 0.0 0.0 0.00 0.00 0.00 52 1016.3
20181020014823 69 19 0.0 0.0 0.00 0.00 0.00 49 1016.4
20181020014327 70 20 0.0 0.0 0.00 0.00 0.00 47 1016.2
20181020013900 71 20 0.0 0.0 0.00 0.00 0.00 46 1016.2
20181020013355 72 20 0.0 1.0 0.00 0.00 0.00 44 1016.2
20181020012850 73 20 0.0 1.0 0.00 0.00 0.00 43 1016.1
20181020012343 74 19 0.0 1.0 0.00 0.00 0.00 42 1016.1
20181020011845 74 269 0.0 1.0 0.00 0.00 0.00 41 1016.1
20181020011344 75 269 0.0 1.0 0.00 0.00 0.00 40 1016.1
20181020010845 76 43 0.0 2.0 0.00 0.00 0.00 41 1016.1
20181020010356 76 282 0.0 2.0 0.00 0.00 0.00 39 1016.1
20181020005900 77 73 0.0 1.0 0.00 0.00 0.00 39 1016.1
20181020005413 77 73 0.0 1.0 0.00 0.00 0.00 39 1016.0
20181020004920 78 271 0.0 0.0 0.00 0.00 0.00 39 1016.0
20181020004420 79 244 0.0 1.0 0.00 0.00 0.00 39 1016.0
20181020003830 79 244 0.0 3.0 0.00 0.00 0.00 38 1016.0
20181020003401 80 138 0.0 1.0 0.00 0.00 0.00 38 1016.0
20181020002912 81 153 0.0 2.0 0.00 0.00 0.00 37 1016.0
20181020002327 82 224 0.0 2.0 0.00 0.00 0.00 36 1016.0
20181020001831 82 219 0.0 2.0 0.00 0.00 0.00 35 1016.0
20181020001352 83 116 0.0 2.0 0.00 0.00 0.00 34 1016.1
20181020000907 84 136 0.0 2.0 0.00 0.00 0.00 33 1016.0
20181020000414 85 262 0.0 2.0 0.00 0.00 0.00 32 1016.0
20181019235847 86 146 0.0 2.0 0.00 0.00 0.00 31 1016.0
20181019235356 86 148 0.0 1.0 0.00 0.00 0.00 31 1016.0
20181019234901 86 151 0.0 2.0 0.00 0.00 0.00 30 1016.0
20181019234359 86 163 0.0 2.0 0.00 0.00 0.00 29 1016.0
20181019233859 87 207 0.0 1.0 0.00 0.00 0.00 29 1016.1
20181019233416 87 161 0.0 1.0 0.00 0.00 0.00 27 1016.2
20181019232847 86 113 0.0 2.0 0.00 0.00 0.00 27 1016.2
20181019232337 86 255 0.0 2.0 0.00 0.00 0.00 28 1016.2
20181019231831 86 212 0.0 1.0 0.00 0.00 0.00 27 1016.2
20181019231327 86 124 0.0 2.0 0.00 0.00 0.00 27 1016.3
20181019230826 87 342 0.0 1.0 0.00 0.00 0.00 26 1016.4
20181019230327 86 144 0.0 1.0 0.00 0.00 0.00 26 1016.4
20181019225822 86 160 0.0 2.0 0.00 0.00 0.00 26 1016.4
20181019225324 86 288 0.0 1.0 0.00 0.00 0.00 26 1016.5
20181019224858 86 96 0.0 1.0 0.00 0.00 0.00 27 1016.6
20181019224412 85 95 0.0 2.0 0.00 0.00 0.00 26 1016.6
20181019223419 85 172 0.0 1.0 0.00 0.00 0.00 27 1016.8
20181019222919 85 180 0.0 2.0 0.00 0.00 0.00 27 1016.8
20181019222419 85 351 0.0 2.0 0.00 0.00 0.00 26 1016.8
20181019221914 85 210 0.0 1.0 0.00 0.00 0.00 26 1016.9
20181019220838 84 155 1.0 1.0 0.00 0.00 0.00 26 1017.1
20181019220411 84 222 0.0 1.0 0.00 0.00 0.00 26 1017.1
20181019215907 84 240 0.0 2.0 0.00 0.00 0.00 27 1017.1
20181019215357 84 238 0.0 2.0 0.00 0.00 0.00 27 1017.2
20181019214850 84 65 0.0 3.0 0.00 0.00 0.00 27 1017.3
20181019214342 84 214 0.0 2.0 0.00 0.00 0.00 28 1017.2
20181019213839 84 90 0.0 2.0 0.00 0.00 0.00 28 1017.3
20181019213339 84 271 0.0 2.0 0.00 0.00 0.00 28 1017.4
20181019212855 84 236 0.0 3.0 0.00 0.00 0.00 29 1017.4
20181019212406 84 264 1.0 3.0 0.00 0.00 0.00 28 1017.5
20181019211906 84 198 0.0 2.0 0.00 0.00 0.00 27 1017.6
20181019211407 85 262 1.0 2.0 0.00 0.00 0.00 27 1017.7
20181019210909 85 167 0.0 0.0 0.00 0.00 0.00 27 1017.7
20181019210327 84 162 0.0 1.0 0.00 0.00 0.00 28 1017.9
20181019205848 84 220 0.0 1.0 0.00 0.00 0.00 28 1018.0
20181019205346 84 129 0.0 0.0 0.00 0.00 0.00 29 1018.0
20181019204840 83 166 0.0 0.0 0.00 0.00 0.00 29 1018.2
20181019203921 83 147 0.0 0.0 0.00 0.00 0.00 29 1018.3
20181019203329 83 146 0.0 1.0 0.00 0.00 0.00 31 1018.4
20181019202844 83 151 0.0 1.0 0.00 0.00 0.00 31 1018.5
20181019202401 82 129 0.0 1.0 0.00 0.00 0.00 32 1018.6
20181019201831 81 88 0.0 3.0 0.00 0.00 0.00 32 1018.8
20181019201356 81 94 0.0 3.0 0.00 0.00 0.00 30 1018.9
20181019200904 81 68 1.0 3.0 0.00 0.00 0.00 32 1019.0
20181019200341 81 81 0.0 2.0 0.00 0.00 0.00 35 1019.1
20181019195909 80 119 0.0 2.0 0.00 0.00 0.00 36 1019.1
20181019195325 79 118 0.0 1.0 0.00 0.00 0.00 41 1019.3
20181019194839 79 65 0.0 1.0 0.00 0.00 0.00 39 1019.3
20181019194415 78 67 0.0 1.0 0.00 0.00 0.00 38 1019.5
20181019193839 77 63 0.0 1.0 0.00 0.00 0.00 41 1019.5
20181019193409 76 346 0.0 1.0 0.00 0.00 0.00 43 1019.7
20181019192826 75 322 0.0 2.0 0.00 0.00 0.00 42 1019.8
20181019192335 75 47 1.0 2.0 0.00 0.00 0.00 42 1019.9
20181019191837 74 274 0.0 2.0 0.00 0.00 0.00 43 1020.0
20181019191348 73 103 1.0 2.0 0.00 0.00 0.00 45 1020.1
20181019190844 73 78 1.0 2.0 0.00 0.00 0.00 45 1020.2
20181019190341 72 97 1.0 2.0 0.00 0.00 0.00 46 1020.2
20181019185918 71 94 1.0 2.0 0.00 0.00 0.00 47 1020.2
20181019185417 70 103 0.0 2.0 0.00 0.00 0.00 49 1020.3
20181019184908 70 20 0.0 2.0 0.00 0.00 0.00 50 1020.4
20181019184410 69 87 0.0 0.0 0.00 0.00 0.00 54 1020.3
20181019183839 68 20 0.0 0.0 0.00 0.00 0.00 54 1020.4
20181019183356 67 60 0.0 0.0 0.00 0.00 0.00 55 1020.5
20181019182854 66 345 0.0 1.0 0.00 0.00 0.00 57 1020.6
20181019182349 65 46 0.0 1.0 0.00 0.00 0.00 57 1020.6
20181019181842 64 44 0.0 1.0 0.00 0.00 0.00 60 1020.6
20181019181344 63 5 0.0 1.0 0.00 0.00 0.00 61 1020.7
20181019180900 63 30 0.0 1.0 0.00 0.00 0.00 63 1020.7
20181019180328 62 30 0.0 1.0 0.00 0.00 0.00 62 1020.8
20181019175834 61 45 0.0 1.0 0.00 0.00 0.00 63 1020.8
20181019175333 61 132 0.0 1.0 0.00 0.00 0.00 66 1020.8
20181019174826 60 4 0.0 1.0 0.00 0.00 0.00 66 1020.9
20181019174326 59 330 0.0 1.0 0.00 0.00 0.00 68 1020.9
20181019173828 59 148 0.0 1.0 0.00 0.00 0.00 70 1020.9
20181019173352 58 16 0.0 1.0 0.00 0.00 0.00 71 1021.0
20181019172921 57 11 0.0 1.0 0.00 0.00 0.00 71 1021.0
20181019172410 57 15 0.0 1.0 0.00 0.00 0.00 71 1021.0
20181019171417 55 336 0.0 2.0 0.00 0.00 0.00 74 1021.2
20181019170912 55 307 0.0 2.0 0.00 0.00 0.00 79 1021.2
20181019170411 55 308 0.0 2.0 0.00 0.00 0.00 78 1021.2
20181019165913 54 341 1.0 2.0 0.00 0.00 0.00 78 1021.3
20181019165415 53 327 0.0 2.0 0.00 0.00 0.00 81 1021.3
20181019164328 51 357 0.0 1.0 0.00 0.00 0.00 87 1021.3
20181019163842 50 33 0.0 0.0 0.00 0.00 0.00 89 1021.4
20181019163409 49 32 0.0 0.0 0.00 0.00 0.00 90 1021.4
20181019162827 48 32 0.0 0.0 0.00 0.00 0.00 90 1021.5
20181019162401 48 31 0.0 0.0 0.00 0.00 0.00 91 1021.4
20181019161919 47 32 0.0 1.0 0.00 0.00 0.00 91 1021.4
20181019161339 47 32 0.0 1.0 0.00 0.00 0.00 91 1021.4
20181019160912 46 79 0.0 0.0 0.00 0.00 0.00 91 1021.4
20181019160420 46 79 0.0 0.0 0.00 0.00 0.00 91 1021.4
20181019155831 45 79 0.0 0.0 0.00 0.01 0.00 91 1021.3
20181019155339 44 96 0.0 0.0 0.00 0.01 0.00 91 1021.4
20181019154851 43 96 0.0 0.0 0.00 0.01 0.00 91 1021.3
20181019153840 43 96 0.0 0.0 0.00 0.01 0.00 91 1021.2
20181019153353 43 96 0.0 0.0 0.00 0.01 0.00 91 1021.2
20181019152911 42 96 0.0 0.0 0.00 0.01 0.00 91 1021.1
20181019152420 41 96 0.0 0.0 0.00 0.01 0.00 91 1021.1
20181019151839 41 96 0.0 0.0 0.00 0.01 0.00 91 1021.0
20181019150842 40 96 0.0 0.0 0.00 0.01 0.00 91 1020.9
20181019150408 39 96 0.0 0.0 0.00 0.01 0.00 91 1021.0
20181019145910 38 95 0.0 0.0 0.00 0.01 0.00 91 1020.9
20181019145345 38 95 0.0 0.0 0.00 0.01 0.00 91 1020.9
20181019144825 38 96 0.0 0.0 0.00 0.01 0.00 91 1020.8
20181019144420 37 96 0.0 0.0 0.00 0.01 0.00 92 1020.8
20181019143833 37 96 0.0 0.0 0.00 0.01 0.00 92 1020.7
20181019143340 37 95 0.0 0.0 0.00 0.01 0.00 92 1020.6
20181019142835 37 95 0.0 0.0 0.00 0.01 0.00 92 1020.5
20181019142359 37 95 0.0 0.0 0.00 0.01 0.00 92 1020.5
20181019141824 37 96 0.0 0.0 0.00 0.01 0.00 92 1020.5
20181019141322 38 95 0.0 0.0 0.00 0.01 0.00 92 1020.4
20181019140823 37 95 0.0 0.0 0.00 0.01 0.00 92 1020.4
20181019140325 38 96 0.0 0.0 0.00 0.01 0.00 92 1020.4
20181019135859 38 96 0.0 0.0 0.00 0.01 0.00 92 1020.4
20181019135420 38 95 0.0 0.0 0.00 0.01 0.00 92 1020.3
20181019134917 38 96 0.0 0.0 0.00 0.01 0.00 92 1020.3
20181019133918 38 96 0.0 0.0 0.00 0.01 0.00 92 1020.3
20181019133412 38 96 0.0 0.0 0.00 0.01 0.00 92 1020.3
20181019132913 38 96 0.0 0.0 0.00 0.01 0.00 92 1020.3
20181019132416 38 96 0.0 0.0 0.00 0.01 0.00 91 1020.2
20181019131917 38 95 0.0 0.0 0.00 0.01 0.00 92 1020.2
20181019131408 38 96 0.0 0.0 0.00 0.01 0.00 91 1020.2
20181019130414 38 96 0.0 0.0 0.00 0.01 0.00 92 1020.1
20181019125911 38 96 0.0 0.0 0.00 0.01 0.00 92 1020.1
20181019125410 38 96 0.0 0.0 0.00 0.01 0.00 92 1020.1
20181019124845 39 96 0.0 0.0 0.00 0.01 0.00 92 1020.1
20181019124408 39 95 0.0 0.0 0.00 0.01 0.00 92 1020.1
20181019123900 39 96 0.0 0.0 0.00 0.01 0.00 92 1020.0
20181019123356 39 96 0.0 0.0 0.00 0.01 0.00 92 1020.0
20181019122852 39 96 0.0 0.0 0.00 0.01 0.00 92 1019.9
20181019122350 39 96 0.0 0.0 0.00 0.01 0.00 92 1019.8
20181019121850 39 96 0.0 0.0 0.00 0.01 0.00 92 1019.8
20181019121338 39 96 0.0 0.0 0.00 0.01 0.00 91 1019.8
20181019120823 40 96 0.0 0.0 0.00 0.01 0.00 91 1019.7
20181019120343 40 96 0.0 0.0 0.00 0.01 0.00 91 1019.7
20181019115919 39 96 0.0 0.0 0.00 0.01 0.00 91 1019.7
20181019115414 39 96 0.0 0.0 0.00 0.01 0.00 91 1019.7
20181019114915 40 95 0.0 0.0 0.00 0.01 0.00 91 1019.7
20181019084840 43 96 0.0 0.0 0.00 0.01 0.00 91 1019.4
20181019084334 43 96 0.0 0.0 0.00 0.01 0.00 91 1019.5
20181019083831 43 96 0.0 0.0 0.00 0.01 0.00 91 1019.4
20181019083325 43 96 0.0 0.0 0.00 0.01 0.00 91 1019.4
20181019082825 43 96 0.0 0.0 0.00 0.01 0.00 91 1019.4
20181019082343 43 96 0.0 0.0 0.00 0.01 0.00 91 1019.5
20181019081841 43 96 0.0 0.0 0.00 0.01 0.00 91 1019.4
20181019081340 43 96 0.0 0.0 0.00 0.01 0.00 91 1019.4
20181019080837 43 96 0.0 0.0 0.00 0.01 0.00 91 1019.4
20181019080329 43 96 0.0 0.0 0.00 0.01 0.00 91 1019.4
20181019075830 44 96 0.0 0.0 0.00 0.01 0.00 91 1019.4
20181019075324 43 96 0.0 0.0 0.00 0.01 0.00 91 1019.4
20181019074841 43 96 0.0 0.0 0.00 0.01 0.00 91 1019.3
20181019074338 44 96 0.0 0.0 0.00 0.01 0.00 90 1019.3
20181019073833 44 96 0.0 0.0 0.00 0.01 0.00 90 1019.3
20181019073330 44 96 0.0 0.0 0.00 0.01 0.00 90 1019.3
20181019072823 44 96 0.0 0.0 0.00 0.01 0.00 90 1019.3
20181019072340 45 96 0.0 0.0 0.00 0.01 0.00 90 1019.3
20181019071838 45 96 0.0 0.0 0.00 0.01 0.00 91 1019.3
20181019071335 45 96 0.0 0.0 0.00 0.01 0.00 90 1019.3
20181019070830 45 96 0.0 0.0 0.00 0.01 0.00 90 1019.4
20181019070344 45 96 0.0 0.0 0.00 0.01 0.00 90 1019.3
20181019065851 45 96 0.0 0.0 0.00 0.01 0.01 90 1019.4
20181019065352 45 96 0.0 0.0 0.00 0.01 0.01 90 1019.3
20181019064852 45 96 0.0 0.0 0.00 0.01 0.01 90 1019.4
20181019064354 45 96 0.0 0.0 0.00 0.01 0.01 90 1019.4
20181019063910 46 96 0.0 0.0 0.00 0.01 0.01 90 1019.4
20181019063408 46 96 0.0 0.0 0.00 0.01 0.01 89 1019.4
20181019062859 46 96 0.0 0.0 0.00 0.01 0.01 89 1019.3
20181019062359 46 96 0.0 0.0 0.00 0.01 0.01 89 1019.3
20181019061905 47 96 0.0 0.0 0.00 0.01 0.01 89 1019.4
20181019061408 47 96 0.0 0.0 0.00 0.01 0.01 88 1019.4
20181019060338 48 96 0.0 0.0 0.00 0.01 0.01 89 1019.3
20181019055914 48 96 0.0 0.0 0.00 0.01 0.01 89 1019.3
20181019054911 48 96 0.0 0.0 0.00 0.01 0.01 89 1019.2
20181019054411 48 96 0.0 0.0 0.00 0.01 0.01 89 1019.2
20181019053907 48 96 0.0 0.0 0.00 0.01 0.01 89 1019.1
20181019052911 48 96 0.0 0.0 0.00 0.01 0.01 87 1019.1
20181019052401 48 96 0.0 0.0 0.00 0.01 0.01 87 1019.0
20181019051904 48 96 0.0 0.0 0.00 0.01 0.01 87 1019.0
20181019051336 49 96 0.0 0.0 0.00 0.01 0.01 86 1019.0
20181019050903 49 96 0.0 0.0 0.00 0.01 0.01 86 1018.9
20181019050407 50 96 0.0 0.0 0.00 0.01 0.01 86 1018.8
20181019045909 50 96 0.0 0.0 0.00 0.01 0.01 86 1018.8
20181019044913 50 96 0.0 0.0 0.00 0.01 0.01 85 1018.7
20181019043830 51 96 0.0 0.0 0.00 0.01 0.01 84 1018.6
20181019043354 51 96 0.0 0.0 0.00 0.01 0.01 84 1018.6
20181019042917 51 96 0.0 0.0 0.00 0.01 0.01 84 1018.6
20181019041920 52 96 0.0 0.0 0.00 0.01 0.01 82 1018.5
20181019041415 52 96 0.0 0.0 0.00 0.01 0.01 81 1018.4
20181019040416 53 96 0.0 0.0 0.00 0.01 0.01 80 1018.4
20181019035917 54 96 0.0 0.0 0.00 0.01 0.01 79 1018.4
20181019035411 54 96 0.0 0.0 0.00 0.01 0.01 78 1018.4